Location: Chinna Viriv?da
(16.5281°N, 81.0493°E)
Time: 09:54:21
(UTC+00:00)

Meteor 2-4 Rocket - Pass Details

Date: 14 April 2026
Orbit: 798 x 906 km, 81.2° (Epoch: 12 May)

Event Time Altitude Azimuth Distance (km) Brightness Sun altitude
Exits shadow 22:02:34 48° 101° (E) 1,079 4.4 -32.6°
Maximum altitude 22:02:46 48° 94° (E) 1,075 4.4 -32.6°
Drops below altitude 10° 22:07:58 10° 21° (NNE) 2,404 6.5 -31.4°
Sets 22:10:24 0° 15° (NNE) 3,324 7.3 -30.9°
